Regional Weather Roundup
Issued by NWS

Home | Current Version | Previous Version | Graphics & Text | Print | Product List | Glossary On
Versions: 1 2 3 4 5 6 7 8 9 10 11 12 13 14 15 16 17 18 19 20 21 22 23 24 25 26 27 28 29 30 31 32 33 34 35 36 37 38 39 40 41 42 43 44 45 46 47 48 49 50
595
ASUS44 KJAN 181510
RWRMS

MISSISSIPPI HOURLY WEATHER ROUNDUP
NATIONAL WEATHER SERVICE JACKSON MS
1000 AM CDT SAT APR 18 2015

NOTE: "FAIR: INDICATES FEW OR NO CLOUDS BELOW 12,000 FEET WITH NO
SIGNIFICANT WEATHER AND/OR OBSTRUCTIONS TO VISIBILITY.

MSZ001>002-007>008-010>013-018>021-025>028-034>036-181600-
NORTHWEST MISSISSIPPI

CITY           SKY/WX    TMP DP  RH WIND       PRES   REMARKS
CLARKSDALE     CLOUDY    64  64 100 SE8       29.98R
CLEVELAND      CLOUDY    65  64  96 E9        29.95R
GREENWOOD      CLOUDY    66  60  81 SE10G18   29.96R
GREENVILLE     CLOUDY    67  62  84 SE15      29.94R
OLIVE BRANCH   PTSUNNY   63  63 100 SE8       29.96F
OXFORD         CLOUDY    59  59 100 SE8       30.00S
TUNICA         CLOUDY    66  63  88 SE6       29.98R
$$

MSZ003>006-009-014>017-022>024-029>033-037>039-181600-
NORTHEAST MISSISSIPPI

CITY           SKY/WX    TMP DP  RH WIND       PRES   REMARKS
COLUMBUS AFB   CLOUDY    65  62  89 E6        29.99R
CORINTH        PTSUNNY   66  63  88 MISG      29.97S
GOLDN TRIANGLE CLOUDY    64  61  88 SE9       29.99R
STARKVILLE     CLOUDY    64  61  88 SE3       30.00R
TUPELO         CLOUDY    65  60  84 SE3       29.99R
$$

MSZ040-058-181600-
CENTRAL MISSISSIPPI

CITY           SKY/WX    TMP DP  RH WIND       PRES   REMARKS
JACKSON INTL   CLOUDY    66  63  90 CALM      29.95R
JACKSON HAWKNS CLOUDY    66  62  87 SE7       29.95S
MERIDIAN KEY   CLOUDY    65  61  87 SE6       29.98R
MERIDIAN NAS   CLOUDY    66  61  82 E3        29.98R
RAYMOND        CLOUDY    66  63  88 E5        29.94S HAZE
VICKSBURG      CLOUDY    68  64  87 SE5       29.93S
$$

MSZ059>079-181600-
SOUTH MISSISSIPPI

CITY           SKY/WX    TMP DP  RH WIND       PRES   REMARKS
BROOKHAVEN     CLOUDY    68  68 100 SE3       29.95S
HATTIESBURG    LGT RAIN  67  65  93 SE5       29.99R
MCCOMB         CLOUDY    68  67  96 SE9       29.93F
NATCHEZ        CLOUDY    70  64  83 S6        29.92R
PINE BELT      CLOUDY    64 N/A N/A SE5       29.98R
$$

MSZ080>082-181600-
COASTAL MISSISSIPPI

CITY           SKY/WX    TMP DP  RH WIND       PRES   REMARKS
BAY ST LOUIS   RAIN      70  66  88 MISG      30.01R
BILOXI         LGT RAIN  69  69 100 VRB1      29.99R
PASCAGOULA     LGT RAIN  69  68  96 CALM      30.00R
GULFPORT       LGT RAIN  69  68  96 SE3       29.99R
$$



USA.gov is the U.S. government's official web portal to all federal, state and local government web resources and services.